Regional Weather Roundup
Issued by NWS

Home | Current Version | Previous Version | Graphics & Text | Print | Product List | Glossary On
Versions: 1 2 3 4 5 6 7 8 9 10 11 12 13 14 15 16 17 18 19 20 21 22 23 24 25 26 27 28 29 30 31 32 33 34 35 36 37 38 39 40 41 42 43 44 45 46 47 48 49 50
054
ASUS45 KSLC 270010
RWRUT

UTAH REGIONAL WEATHER ROUNDUP
NATIONAL WEATHER SERVICE SALT LAKE CITY UT
600 PM MDT FRI MAY 26 2017

UTZ001>011-023>025-270100-

NORTHERN UTAH

CITY           SKY/WX    TMP DP  RH WIND       PRES   REMARKS
BRIGHAM CITY   MOSUNNY   62  31  30 NW13      29.95R
HILL AFB       MOSUNNY   63  31  30 W12G21    29.94R
LOGAN          LGT RAIN  60  40  47 N15G26    29.95R
OGDEN          MOSUNNY   62  32  32 NW12      29.92R
SALT LAKE CITY PTSUNNY   66  32  28 N14       29.92R
TOOELE VALLEY  MOSUNNY   63  36  36 N13       29.94S
WENDOVER       PTSUNNY   68  28  22 N14G24    29.92R
HEBER CITY     PTSUNNY   63  28  27 CALM      29.90R
WEST JORDAN    MOSUNNY   64  41  43 NW16      29.94R

$$

UTZ011>015-024>027-270100-

CENTRAL/NORTHEAST UTAH

CITY           SKY/WX    TMP DP  RH WIND       PRES   REMARKS
PROVO AIRPORT  PTSUNNY   65  35  33 NW18G25   29.90R
MOAB/CANYONLAN MOSUNNY   82  17   9 SW28G37   29.71S
DELTA          MOSUNNY   72  28  20 N25G33    29.85R
PRICE          SUNNY     73  25  16 NW20G30   29.82R
ROOSEVELT      CLOUDY    72  28  20 NW26G40   29.80S HAZE
VERNAL         CLOUDY    73  36  25 NE12      29.78S

$$

UTZ013>016-019>022-027-270100-

SOUTHERN UTAH

CITY           SKY/WX    TMP DP  RH WIND       PRES   REMARKS
BRYCE CANYON   SUNNY     66  20  17 SW21G30   30.00R
CEDAR CITY     SUNNY     75  20  12 S21G29    29.89R
MILFORD        PTSUNNY   76  22  13 SW21      29.80R
ST GEORGE      MOCLDY    86  22   9 W14       29.77
HANKSVILLE     PTSUNNY   82  23  11 W24G33    29.75S
BLANDING       SUNNY     76  15  10 SW14G20   29.95S

$$

REGIONAL REPORTS     COLORADO/ARIZONA

CITY           SKY/WX    TMP DP  RH WIND       PRES   REMARKS
CRAIG, CO      CLOUDY    56  39  53 N30G47    29.87R
GRAND JUNCTION SUNNY     83   7   5 W24G32    29.72F
RIFLE, CO      CLOUDY    78   8   7 SW15G23   29.78R
MONTROSE, CO   SUNNY     76  11   8 SW16G30   29.85S
CORTEZ, CO     SUNNY     77   8   7 SW21G31   29.90F
COLORADO CITY    N/A     81  23  12 W14G21    29.92R
PAGE, AZ       SUNNY     86  17   8 W9G22     29.78S
GRAND CANYON   SUNNY     71  20  14 SW17G35   30.02S
KINGMAN, AZ    SUNNY     82  22  11 SW20G28   29.88R
FLAGSTAFF, AZ  SUNNY     66  14  13 SW20G29   30.07S

$$

REGIONAL REPORTS    NEVADA/IDAHO/WYOMING

CITY           SKY/WX    TMP DP  RH WIND       PRES   REMARKS
LAS VEGAS, NV  SUNNY     90  21   8 VRB6G18   29.72R
ELY, NY        SUNNY     66  21  18 W9G22     29.95R
ELKO, NV       PTSUNNY   62  28  27 NW9       30.00R
POCATELLO, ID  CLOUDY    47  41  80 NW12      30.02R
BURLEY, ID     MOSUNNY   53  43  68 VRB3      30.00R
FORT BRIDGER,    N/A     58  24  27 W24G31    29.99R
EVANSTON, WY   SUNNY     54  28  36 W21G35    29.98R
ROCK SPRINGS,  LGT RAIN  50  34  54 W8        29.93R
KEMMERER, WY     N/A     52  30  43 W24G33    29.97R

$$




USA.gov is the U.S. government's official web portal to all federal, state and local government web resources and services.